Stations météo

Publicité
Dorans, France (7296): Température de l'air & dewpoint: 17.10.2018 23:00:00 - 23.10.2018 23:00:00 (CEST)Dorans, France (7296): Température de l'air 5cm: 17.10.2018 23:00:00 - 23.10.2018 23:00:00 (CEST)Dorans, France (7296): Température de l'air -20cm & Température de l'air -100cm: 17.10.2018 23:00:00 - 23.10.2018 23:00:00 (CEST)Dorans, France (7296): Vitesse du vent & gusts: 17.10.2018 23:00:00 - 23.10.2018 23:00:00 (CEST)Dorans, France (7296): Direction du vent: 17.10.2018 23:00:00 - 23.10.2018 23:00:00 (CEST)Dorans, France (7296): reduced air pressure: 17.10.2018 23:00:00 - 23.10.2018 23:00:00 (CEST)Dorans, France (7296): visibility: 17.10.2018 23:00:00 - 23.10.2018 23:00:00 (CEST)Dorans, France (7296): Quantités de précipitations: 17.10.2018 23:00:00 - 23.10.2018 23:00:00 (CEST)
Date & Time tt [°C] td [°C] tt 5cm [°C] tt -20cm [°C] tt -100cm [°C] ff [km/h] ff [knt] fx [km/h] fx [knt] dd ppp [hPa] vv [km] rr [mm]
23.10.2018 23:00:00 - - - - - - - - - - - - -
23.10.2018 22:00:00 10,5 3,1 9,5 13,8 15,5 12 6 26 14 WSW 1029,6 20 0,0
23.10.2018 21:00:00 11,1 2,9 9,5 13,9 15,5 14 8 24 13 WSW 1028,7 20 0,0
23.10.2018 20:00:00 11,9 2,9 10,5 13,9 15,5 8 5 22 12 WSW 1028,8 20 0,0
23.10.2018 19:00:00 11,8 3,0 10,5 13,8 15,5 10 5 23 12 WSW 1028,7 20 0,0
23.10.2018 18:00:00 13,4 2,6 13,6 13,8 15,5 13 7 26 14 WSW 1028,0 20 0,0
23.10.2018 17:00:00 13,8 2,4 14,0 13,6 15,5 14 7 30 16 W 1027,9 20 0,0
23.10.2018 16:00:00 14,5 3,9 16,1 13,3 15,5 16 9 29 16 WNW 1028,5 20 0,0
23.10.2018 15:00:00 15,5 5,7 19,4 13,1 15,5 15 8 27 15 WNW 1028,5 20 0,0
23.10.2018 14:00:00 14,4 5,7 16,0 12,9 15,5 10 5 20 11 W 1029,5 20 0,0
23.10.2018 13:00:00 13,6 5,7 16,7 12,7 15,5 9 5 26 14 WSW 1030,5 20 0,0
23.10.2018 12:00:00 11,9 6,2 14,3 12,7 15,6 10 5 16 9 SW 1031,0 20 0,0
23.10.2018 11:00:00 10,3 6,1 7,9 12,6 15,5 3 2 16 9 W 1031,4 20 0,0
23.10.2018 10:00:00 6,7 6,0 3,9 12,8 15,6 11 6 15 8 NNW 1032,0 6 0,0
23.10.2018 09:00:00 4,1 3,5 2,0 12,9 15,5 10 5 13 7 NNW 1032,0 2,1 0,0
23.10.2018 08:00:00 4,1 3,5 1,4 13,0 15,6 4 2 7 4 SSW 1031,3 3,1 0,0
23.10.2018 07:00:00 4,9 4,2 3,0 13,2 15,6 3 2 8 4 N 1031,9 3,4 0,0
23.10.2018 06:00:00 5,6 4,9 3,3 13,3 15,6 5 3 9 5 NNE 1032,2 6 0,0
23.10.2018 05:00:00 6,3 5,3 3,1 13,4 15,6 9 5 17 9 SE 1031,3 10 0,0
23.10.2018 04:00:00 6,5 5,1 3,7 13,6 15,6 10 5 15 8 SSE 1031,4 7 0,0
23.10.2018 03:00:00 7,9 6,0 4,7 13,7 15,6 9 5 17 9 E 1031,7 14 0,0
23.10.2018 02:00:00 8,2 6,3 6,5 13,7 15,6 9 5 20 11 ESE 1031,2 10 0,0
23.10.2018 01:00:00 9,1 6,0 7,2 13,8 15,6 8 5 30 16 E 1031,4 12 0,0
23.10.2018 00:00:00 10,4 5,6 9,0 13,8 15,6 15 8 40 22 E 1030,9 19 0,0
22.10.2018 23:00:00 11,1 4,1 9,9 13,9 15,7 22 12 39 21 ENE 1030,4 20 0,0
22.10.2018 22:00:00 11,7 2,7 10,1 14,0 15,6 19 10 40 22 ENE 1029,9 20 0,0
22.10.2018 21:00:00 12,1 2,8 9,8 14,1 15,6 13 7 22 12 ENE 1029,6 20 0,0
22.10.2018 20:00:00 11,7 1,0 9,3 14,1 15,7 9 5 28 15 E 1029,4 20 0,0
22.10.2018 19:00:00 12,8 0,8 11,7 14,1 15,7 19 10 39 21 ENE 1028,4 20 0,0
22.10.2018 18:00:00 13,8 1,1 13,8 13,9 15,6 16 8 45 24 E 1027,3 20 0,0
22.10.2018 17:00:00 14,8 1,3 15,1 13,8 15,7 18 10 39 21 E 1027,0 20 0,0
22.10.2018 16:00:00 15,4 1,1 20,6 13,6 15,7 16 9 36 19 E 1026,3 20 0,0
22.10.2018 15:00:00 14,5 2,1 21,0 13,4 15,7 16 9 32 17 E 1026,5 20 0,0
22.10.2018 14:00:00 13,5 1,8 21,0 13,2 15,7 14 7 33 18 E 1026,8 20 0,0
22.10.2018 13:00:00 12,8 1,8 19,5 13,0 15,7 18 10 33 18 E 1026,8 20 0,0
22.10.2018 12:00:00 11,3 2,8 16,0 13,0 15,7 15 8 32 17 E 1027,2 20 0,0
22.10.2018 11:00:00 9,2 3,4 8,9 13,0 15,7 12 7 29 15 E 1027,4 20 0,0
22.10.2018 10:00:00 6,2 2,6 5,4 13,2 15,7 13 7 22 12 ENE 1027,8 20 0,0
22.10.2018 09:00:00 4,5 2,2 2,0 13,3 15,7 10 5 19 10 NE 1027,6 19 0,0
22.10.2018 08:00:00 4,0 1,4 1,2 13,4 15,7 8 4 17 9 E 1026,5 20 0,0
22.10.2018 07:00:00 4,2 1,7 1,5 13,6 15,7 8 4 16 9 ENE 1026,1 20 0,0
22.10.2018 06:00:00 3,9 1,9 1,5 13,7 15,7 6 4 17 9 NNE 1026,0 20 0,0
22.10.2018 05:00:00 5,8 2,4 4,0 13,8 15,7 11 6 21 11 ENE 1025,3 20 0,0
22.10.2018 04:00:00 6,4 2,8 4,5 13,9 15,7 10 6 25 13 E 1025,2 20 0,0
22.10.2018 03:00:00 7,4 3,3 - - - 13 7 26 14 E 1025,3 20 0,0
22.10.2018 02:00:00 8,0 3,8 - - - 15 8 24 13 E 1025,3 20 -
22.10.2018 01:00:00 8,6 4,2 6,7 14,3 15,8 12 7 27 14 E 1025,2 20 0,0
22.10.2018 00:00:00 9,1 4,9 7,1 14,4 15,7 12 7 23 13 E 1024,8 20 0,0
21.10.2018 23:00:00 9,4 5,6 7,0 14,5 15,7 12 7 24 13 E 1024,9 16 0,0
21.10.2018 22:00:00 9,2 5,9 7,2 14,6 15,8 8 5 20 11 E 1024,7 11 0,0
21.10.2018 21:00:00 9,6 6,5 7,3 14,7 15,8 8 4 16 9 ESE 1024,9 11 0,0
21.10.2018 20:00:00 10,6 6,7 8,6 14,7 15,8 8 4 19 11 E 1024,7 12 0,0
21.10.2018 19:00:00 11,4 6,5 9,4 14,7 15,8 9 5 21 11 E 1024,4 13 0,0
21.10.2018 18:00:00 13,4 6,5 13,9 14,6 15,8 9 5 34 18 E 1024,0 15 0,0
21.10.2018 17:00:00 14,6 6,4 15,5 14,5 15,8 20 11 34 18 E 1024,1 16 0,0
21.10.2018 16:00:00 15,3 6,6 20,7 14,3 15,8 19 11 35 19 E 1024,1 16 0,0
21.10.2018 15:00:00 15,6 7,4 22,2 14,1 15,8 16 8 31 17 E 1024,4 12 0,0
21.10.2018 14:00:00 14,3 7,3 20,8 13,9 15,8 14 8 31 17 ENE 1025,2 11 0,0
21.10.2018 13:00:00 12,3 6,8 17,2 13,9 15,8 18 10 30 16 E 1026,4 11 0,0
21.10.2018 12:00:00 10,4 6,7 12,1 13,8 15,8 16 9 29 16 E 1027,3 8 0,0
21.10.2018 11:00:00 8,9 6,9 9,2 13,9 15,9 18 10 29 16 ENE 1027,8 6 0,0
21.10.2018 10:00:00 7,6 6,5 7,6 13,9 15,8 13 7 29 16 E 1028,2 4,1 0,0
21.10.2018 09:00:00 7,0 6,3 6,8 13,9 15,8 10 5 26 14 E 1028,6 3,1 0,0
21.10.2018 08:00:00 7,0 6,6 5,3 14,0 15,8 10 6 26 14 E 1028,0 1,2 0,0
21.10.2018 07:00:00 6,4 5,5 4,8 14,2 15,9 10 5 20 11 ENE 1028,0 2,7 0,0
21.10.2018 06:00:00 7,2 6,0 5,6 14,3 15,9 9 5 20 11 E 1028,0 4,1 0,0
21.10.2018 05:00:00 7,5 6,3 5,9 14,4 15,9 10 6 19 10 ESE 1028,1 3,6 0,0
21.10.2018 04:00:00 8,5 6,8 6,4 14,5 15,9 7 4 15 8 E 1028,0 4,3 0,0
21.10.2018 03:00:00 9,0 7,0 6,2 14,5 15,9 8 4 16 9 E 1028,3 6 0,0
21.10.2018 02:00:00 9,4 7,0 6,7 14,6 15,9 8 4 15 8 SE 1028,5 8 0,0
21.10.2018 01:00:00 10,4 7,5 8,4 14,7 15,9 8 5 23 12 E 1028,6 8 0,0
21.10.2018 00:00:00 10,7 8,6 9,1 14,8 15,9 13 7 25 13 E 1028,6 3,5 0,0
20.10.2018 23:00:00 10,5 9,3 7,4 15,0 15,9 9 5 19 11 E 1029,0 2,3 0,0
20.10.2018 22:00:00 10,4 9,2 8,1 15,0 15,9 6 4 12 6 E 1028,8 2,1 0,0
20.10.2018 21:00:00 10,5 8,9 8,1 15,1 15,9 5 3 9 5 ENE 1028,6 2,1 0,0
20.10.2018 20:00:00 11,3 9,2 9,2 15,1 15,9 6 4 14 8 ENE 1028,2 2,7 0,0
20.10.2018 19:00:00 12,1 9,1 10,1 15,1 15,9 9 5 19 11 ENE 1027,9 3,8 0,0
20.10.2018 18:00:00 14,2 9,4 14,3 15,0 15,9 14 7 27 15 ENE 1027,3 5 0,0
20.10.2018 17:00:00 15,5 9,6 16,9 14,8 15,9 15 8 29 15 E 1027,1 6 0,0
20.10.2018 16:00:00 17,0 10,1 22,1 14,6 15,9 16 9 32 18 E 1026,9 7 0,0
20.10.2018 15:00:00 16,8 10,2 23,4 14,4 15,9 13 7 26 14 E 1026,8 6 0,0
20.10.2018 14:00:00 15,9 10,2 20,9 14,2 15,9 14 8 30 16 E 1027,6 5 0,0
20.10.2018 13:00:00 14,4 10,0 14,8 14,1 15,9 20 11 33 18 ENE 1028,3 4,2 0,0
20.10.2018 12:00:00 11,7 11,5 11,3 14,1 15,9 9 5 24 13 E 1028,8 2,2 0,0
20.10.2018 11:00:00 9,6 9,3 10,1 14,1 15,9 12 7 29 15 E 1028,7 0,2 0,0
20.10.2018 10:00:00 9,1 8,8 8,9 14,1 15,9 15 8 25 13 ENE 1028,6 0,2 0,0
20.10.2018 09:00:00 8,4 8,1 7,5 14,2 15,9 10 5 21 11 E 1028,1 0,1 0,2
20.10.2018 08:00:00 7,5 7,2 4,9 14,3 15,9 8 5 12 6 SE 1028,0 0,1 0,0
20.10.2018 07:00:00 8,2 7,8 5,6 14,4 15,9 5 3 16 9 E 1027,2 1,0 0,0
20.10.2018 06:00:00 8,4 8,1 5,4 14,6 15,9 4 2 11 6 E 1026,2 0,6 0,0
20.10.2018 05:00:00 8,0 7,6 4,9 14,7 15,9 4 2 9 5 ESE 1025,8 0,1 0,0
20.10.2018 04:00:00 7,9 7,3 5,2 14,8 15,9 1 1 8 4 E 1025,6 0,2 0,0
20.10.2018 03:00:00 8,9 8,4 6,4 15,0 15,9 5 3 14 8 E 1025,3 1,1 0,0
20.10.2018 02:00:00 9,1 8,5 6,5 15,1 15,9 6 3 8 5 ENE 1025,0 0,6 0,0
20.10.2018 01:00:00 9,5 8,7 7,0 15,2 15,9 5 3 7 4 E 1024,9 1,6 0,0
20.10.2018 00:00:00 9,5 8,6 7,6 15,3 15,9 4 2 6 4 NNW 1024,9 1,8 0,2
19.10.2018 23:00:00 10,2 8,8 7,8 15,5 15,9 2 1 9 5 ESE 1024,4 2,7 0,0
19.10.2018 22:00:00 10,7 9,0 8,2 15,6 15,9 4 2 9 5 E 1024,0 3,8 0,0
19.10.2018 21:00:00 11,8 9,2 9,8 15,7 15,9 7 4 9 5 NNE 1023,3 6 0,0
19.10.2018 20:00:00 12,8 9,4 10,1 15,7 15,9 4 2 9 5 ENE 1022,5 7 0,0
19.10.2018 19:00:00 13,7 9,5 11,0 15,7 16,0 6 3 13 7 E 1021,8 8 0,0
19.10.2018 18:00:00 14,8 9,6 14,0 15,7 15,9 8 4 17 9 E 1021,2 8 0,0
19.10.2018 17:00:00 16,5 9,9 17,4 15,5 16,0 9 5 23 12 E 1020,7 10 0,0
19.10.2018 16:00:00 16,6 9,8 21,5 15,4 16,0 11 6 24 13 E 1020,4 10 0,0
19.10.2018 15:00:00 16,2 9,8 22,7 15,2 15,9 13 7 28 15 E 1020,4 9 0,0
19.10.2018 14:00:00 15,3 9,9 21,2 15,1 16,0 13 7 28 15 E 1021,0 8 0,0
19.10.2018 13:00:00 13,5 9,5 16,6 15,0 16,0 18 10 35 19 ENE 1021,6 6 0,0
19.10.2018 12:00:00 12,2 10,1 12,3 15,0 16,0 16 9 32 18 E 1022,0 4,1 0,0
19.10.2018 11:00:00 10,8 9,9 11,4 15,0 16,0 16 9 31 17 E 1022,2 2,4 0,0
19.10.2018 10:00:00 10,5 9,7 10,8 15,0 16,0 14 7 31 17 E 1022,1 1,9 0,0
19.10.2018 09:00:00 10,4 9,6 10,4 15,1 16,0 14 8 29 16 E 1021,6 1,9 0,0
19.10.2018 08:00:00 10,4 9,6 9,6 15,2 16,0 12 7 26 14 E 1021,0 2,1 0,0
19.10.2018 07:00:00 10,3 9,4 9,4 15,3 16,0 11 6 33 18 E 1020,5 2,4 0,0
19.10.2018 06:00:00 10,8 9,9 9,4 15,4 16,0 12 6 28 15 E 1020,1 3,0 0,0
19.10.2018 05:00:00 10,8 9,9 9,0 15,4 16,0 12 6 23 12 ESE 1019,9 2,6 0,0
19.10.2018 04:00:00 10,9 9,8 9,5 15,5 16,0 11 6 21 11 SE 1019,8 3,0 0,0
19.10.2018 03:00:00 11,7 9,9 10,1 15,6 16,0 11 6 26 14 E 1019,5 4,6 0,0
19.10.2018 02:00:00 12,0 10,2 10,5 15,7 16,0 10 5 23 12 ESE 1019,7 4,8 0,0
19.10.2018 01:00:00 12,8 10,3 11,1 15,8 16,0 10 6 24 13 ESE 1019,5 7 0,0
19.10.2018 00:00:00 14,4 10,4 12,9 15,8 16,0 13 7 29 16 E 1019,3 11 0,0
18.10.2018 23:00:00 15,2 10,6 13,7 15,9 16,0 14 8 31 17 E 1019,0 13 0,0
18.10.2018 22:00:00 16,0 10,1 14,2 16,0 16,0 17 9 32 17 ENE 1018,7 19 0,0
18.10.2018 21:00:00 16,2 10,1 14,1 15,9 16,0 12 7 26 14 E 1018,5 20 0,0
18.10.2018 20:00:00 16,5 9,9 14,7 16,0 16,0 12 7 25 14 E 1017,9 20 0,0
18.10.2018 19:00:00 17,6 9,5 15,7 15,9 16,0 13 7 26 14 E 1017,2 20 0,0
18.10.2018 18:00:00 19,5 8,8 19,6 15,8 16,0 15 8 35 19 E 1016,6 20 0,0
18.10.2018 17:00:00 20,4 8,4 - - - 21 11 35 19 ENE 1016,4 19 -
18.10.2018 16:00:00 20,5 7,8 23,7 15,4 16,0 19 11 38 21 ENE 1016,6 19 0,0
18.10.2018 15:00:00 20,4 9,0 26,1 15,1 16,0 21 11 38 21 ENE 1016,8 20 0,0
18.10.2018 14:00:00 19,9 9,7 26,3 15,0 16,0 18 10 36 19 ENE 1017,2 18 0,0
18.10.2018 13:00:00 18,7 9,2 24,8 14,7 16,0 17 9 34 18 E 1018,0 16 0,0
18.10.2018 12:00:00 16,1 9,7 17,5 14,7 16,0 10 5 25 13 E 1018,9 12 0,0
18.10.2018 11:00:00 13,0 9,4 12,3 14,7 16,0 11 6 23 12 E 1019,4 7 0,0
18.10.2018 10:00:00 10,5 9,1 8,8 14,8 16,0 8 4 16 9 ENE 1019,5 2,9 0,0
18.10.2018 09:00:00 9,5 8,4 7,5 14,9 16,0 5 3 15 8 ENE 1019,4 2,2 0,2
18.10.2018 08:00:00 9,4 8,3 7,0 15,0 16,0 8 4 15 8 E 1019,0 2,5 0,0
18.10.2018 07:00:00 9,6 8,5 7,3 15,1 16,0 8 5 15 8 ENE 1018,5 2,9 0,0
18.10.2018 06:00:00 9,5 8,4 7,1 15,2 16,0 8 4 11 6 NE 1018,5 3,1 0,0
18.10.2018 05:00:00 10,0 8,8 7,7 15,4 16,0 5 3 8 4 NE 1018,3 5 0,0
18.10.2018 04:00:00 10,2 8,3 8,2 15,5 16,1 5 3 9 5 NE 1018,2 6 0,0
18.10.2018 03:00:00 10,9 8,8 8,9 15,6 16,0 5 3 6 4 NE 1018,2 9 0,0
18.10.2018 02:00:00 11,7 8,7 9,6 15,7 16,1 4 2 8 4 ENE 1018,1 11 0,0
18.10.2018 01:00:00 11,9 8,6 9,6 15,8 16,0 2 1 9 5 E 1018,5 12 0,0
18.10.2018 00:00:00 12,6 8,9 10,3 16,0 16,1 3 2 9 5 E 1018,4 14 0,0
17.10.2018 23:00:00 13,1 9,0 11,0 16,0 16,0 4 2 10 5 SE 1018,3 17 0,0

tt = Température de l'air
td = dewpoint
tt 5cm = Température de l'air 5cm
tt -20cm = Température de l'air -20cm
tt -100cm = Température de l'air -100cm
ff = Vitesse du vent
fx = gusts
dd = Direction du vent
ppp = reduced air pressure
vv = visibility
rr = Quantités de précipitations

stations d'obs. à proximité